User: anonymous
Location: Unspecified
(0.0000°N, 0.0000°E)
Time: 03:13:54
(UTC+02:00)
Language:

Ariane H10 - Orbit

View from above orbital plane
View from above orbital plane
View from above satellite
View from above satellite

Ground track
Ground track

The orbit data is extracted from the following two-line orbital elements,

1 21727U 91067B   14240.31967206 -.00000001  00000-0  00000+0 0  2801
2 21727 004.5262 029.1914 7185139 041.2616 354.9663 02.31396956154202
Epoch (UTC): 28 August 2014 07:40:19
Eccentricity: 0.7185139
inclination: 4.5262°
perigee height: 418 km
apogee height: 35115 km
right ascension of ascending node: 29.1914°
argument of perigee: 41.2616°
revolutions per day: 2.31396956
mean anomaly at epoch: 354.9663°
orbit number at epoch: 15420

The dashed part of the orbit path shows where the satellite is in the earth's shadow,  

DLR